Year,Month,Day,Hour,Minute,Value (Times are PST for insolation in W/m^2)
2015,11,03,00,00,0.00
2015,11,03,00,01,0.00
2015,11,03,00,02,0.00
2015,11,03,00,03,0.00
2015,11,03,00,04,0.00
2015,11,03,00,05,0.00
2015,11,03,00,06,0.00
2015,11,03,00,07,0.00
2015,11,03,00,08,0.00
2015,11,03,00,09,0.00
2015,11,03,00,10,0.00
2015,11,03,00,11,0.00
2015,11,03,00,12,0.00
2015,11,03,00,13,0.00
2015,11,03,00,14,0.00
2015,11,03,00,15,0.00
2015,11,03,00,16,0.00
2015,11,03,00,17,0.00
2015,11,03,00,18,0.00
2015,11,03,00,19,0.00
2015,11,03,00,20,0.00
2015,11,03,00,21,0.00
2015,11,03,00,22,0.00
2015,11,03,00,23,0.00
2015,11,03,00,24,0.00
2015,11,03,00,25,0.00
2015,11,03,00,26,0.00
2015,11,03,00,27,0.00
2015,11,03,00,28,0.00
2015,11,03,00,29,0.00
2015,11,03,00,30,0.00
2015,11,03,00,31,0.00
2015,11,03,00,32,0.00
2015,11,03,00,33,0.00
2015,11,03,00,34,0.00
2015,11,03,00,35,0.00
2015,11,03,00,36,0.00
2015,11,03,00,37,0.00
2015,11,03,00,38,0.00
2015,11,03,00,39,0.00
2015,11,03,00,40,0.00
2015,11,03,00,41,0.00
2015,11,03,00,42,0.00
2015,11,03,00,43,0.00
2015,11,03,00,44,0.00
2015,11,03,00,45,0.00
2015,11,03,00,46,0.00
2015,11,03,00,47,0.00
2015,11,03,00,48,0.00
2015,11,03,00,49,0.00
2015,11,03,00,50,0.00
2015,11,03,00,51,0.00
2015,11,03,00,52,0.00
2015,11,03,00,53,0.00
2015,11,03,00,54,0.00
2015,11,03,00,55,0.00
2015,11,03,00,56,0.00
2015,11,03,00,57,0.00
2015,11,03,00,58,0.00
2015,11,03,00,59,0.00
2015,11,03,01,00,0.00
2015,11,03,01,01,0.00
2015,11,03,01,02,0.00
2015,11,03,01,03,0.00
2015,11,03,01,04,0.00
2015,11,03,01,05,0.00
2015,11,03,01,06,0.00
2015,11,03,01,07,0.00
2015,11,03,01,08,0.00
2015,11,03,01,09,0.00
2015,11,03,01,10,0.00
2015,11,03,01,11,0.00
2015,11,03,01,12,0.00
2015,11,03,01,13,0.00
2015,11,03,01,14,0.00
2015,11,03,01,15,0.00
2015,11,03,01,16,0.00
2015,11,03,01,17,0.00
2015,11,03,01,18,0.00
2015,11,03,01,19,0.00
2015,11,03,01,20,0.00
2015,11,03,01,21,0.00
2015,11,03,01,22,0.00
2015,11,03,01,23,0.00
2015,11,03,01,24,0.00
2015,11,03,01,25,0.00
2015,11,03,01,26,0.00
2015,11,03,01,27,0.00
2015,11,03,01,28,0.00
2015,11,03,01,29,0.00
2015,11,03,01,30,0.00
2015,11,03,01,31,0.00
2015,11,03,01,32,0.00
2015,11,03,01,33,0.00
2015,11,03,01,34,0.00
2015,11,03,01,35,0.00
2015,11,03,01,36,0.00
2015,11,03,01,37,0.00
2015,11,03,01,38,0.00
2015,11,03,01,39,0.00
2015,11,03,01,40,0.00
2015,11,03,01,41,0.00
2015,11,03,01,42,0.00
2015,11,03,01,43,0.00
2015,11,03,01,44,0.00
2015,11,03,01,45,0.00
2015,11,03,01,46,0.00
2015,11,03,01,47,0.00
2015,11,03,01,48,0.00
2015,11,03,01,49,0.00
2015,11,03,01,50,0.00
2015,11,03,01,51,0.00
2015,11,03,01,52,0.00
2015,11,03,01,53,0.00
2015,11,03,01,54,0.00
2015,11,03,01,55,0.00
2015,11,03,01,56,0.00
2015,11,03,01,57,0.00
2015,11,03,01,58,0.00
2015,11,03,01,59,0.00
2015,11,03,02,00,0.00
2015,11,03,02,01,0.00
2015,11,03,02,02,0.00
2015,11,03,02,03,0.00
2015,11,03,02,04,0.00
2015,11,03,02,05,0.00
2015,11,03,02,06,0.00
2015,11,03,02,07,0.00
2015,11,03,02,08,0.00
2015,11,03,02,09,0.00
2015,11,03,02,10,0.00
2015,11,03,02,11,0.00
2015,11,03,02,12,0.00
2015,11,03,02,13,0.00
2015,11,03,02,14,0.00
2015,11,03,02,15,0.00
2015,11,03,02,16,0.00
2015,11,03,02,17,0.00
2015,11,03,02,18,0.00
2015,11,03,02,19,0.00
2015,11,03,02,20,0.00
2015,11,03,02,21,0.00
2015,11,03,02,22,0.00
2015,11,03,02,23,0.00
2015,11,03,02,24,0.00
2015,11,03,02,25,0.00
2015,11,03,02,26,0.00
2015,11,03,02,27,0.00
2015,11,03,02,28,0.00
2015,11,03,02,29,0.00
2015,11,03,02,30,0.00
2015,11,03,02,31,0.00
2015,11,03,02,32,0.00
2015,11,03,02,33,0.00
2015,11,03,02,34,0.00
2015,11,03,02,35,0.00
2015,11,03,02,36,0.00
2015,11,03,02,37,0.00
2015,11,03,02,38,0.00
2015,11,03,02,39,0.00
2015,11,03,02,40,0.00
2015,11,03,02,41,0.00
2015,11,03,02,42,0.00
2015,11,03,02,43,0.00
2015,11,03,02,44,0.00
2015,11,03,02,45,0.00
2015,11,03,02,46,0.00
2015,11,03,02,47,0.00
2015,11,03,02,48,0.00
2015,11,03,02,49,0.00
2015,11,03,02,50,0.00
2015,11,03,02,51,0.00
2015,11,03,02,52,0.00
2015,11,03,02,53,0.00
2015,11,03,02,54,0.00
2015,11,03,02,55,0.00
2015,11,03,02,56,0.00
2015,11,03,02,57,0.00
2015,11,03,02,58,0.00
2015,11,03,02,59,0.00
2015,11,03,03,00,0.00
2015,11,03,03,01,0.00
2015,11,03,03,02,0.00
2015,11,03,03,06,0.00
2015,11,03,03,07,0.00
2015,11,03,03,08,0.00
2015,11,03,03,09,0.00
2015,11,03,03,10,0.00
2015,11,03,03,11,0.00
2015,11,03,03,12,0.00
2015,11,03,03,13,0.00
2015,11,03,03,14,0.00
2015,11,03,03,15,0.00
2015,11,03,03,16,0.00
2015,11,03,03,17,0.00
2015,11,03,03,18,0.00
2015,11,03,03,19,0.00
2015,11,03,03,20,0.00
2015,11,03,03,21,0.00
2015,11,03,03,22,0.00
2015,11,03,03,23,0.00
2015,11,03,03,24,0.00
2015,11,03,03,25,0.00
2015,11,03,03,26,0.00
2015,11,03,03,27,0.00
2015,11,03,03,28,0.00
2015,11,03,03,29,0.00
2015,11,03,03,30,0.00
2015,11,03,03,31,0.00
2015,11,03,03,32,0.00
2015,11,03,03,33,0.00
2015,11,03,03,34,0.00
2015,11,03,03,35,0.00
2015,11,03,03,36,0.00
2015,11,03,03,37,0.00
2015,11,03,03,38,0.00
2015,11,03,03,39,0.00
2015,11,03,03,40,0.00
2015,11,03,03,41,0.00
2015,11,03,03,42,0.00
2015,11,03,03,43,0.00
2015,11,03,03,44,0.00
2015,11,03,03,45,0.00
2015,11,03,03,46,0.00
2015,11,03,03,47,0.00
2015,11,03,03,48,0.00
2015,11,03,03,49,0.00
2015,11,03,03,50,0.00
2015,11,03,03,51,0.00
2015,11,03,03,52,0.00
2015,11,03,03,53,0.00
2015,11,03,03,54,0.00
2015,11,03,03,55,0.00
2015,11,03,03,56,0.00
2015,11,03,03,57,0.00
2015,11,03,03,58,0.00
2015,11,03,03,59,0.00
2015,11,03,04,00,0.00
2015,11,03,04,01,0.00
2015,11,03,04,02,0.00
2015,11,03,04,03,0.00
2015,11,03,04,04,0.00
2015,11,03,04,05,0.00
2015,11,03,04,06,0.00
2015,11,03,04,07,0.00
2015,11,03,04,08,0.00
2015,11,03,04,09,0.00
2015,11,03,04,10,0.00
2015,11,03,04,11,0.00
2015,11,03,04,12,0.00
2015,11,03,04,13,0.00
2015,11,03,04,14,0.00
2015,11,03,04,15,0.00
2015,11,03,04,16,0.00
2015,11,03,04,17,0.00
2015,11,03,04,18,0.00
2015,11,03,04,19,0.00
2015,11,03,04,20,0.00
2015,11,03,04,21,0.00
2015,11,03,04,22,0.00
2015,11,03,04,23,0.00
2015,11,03,04,24,0.00
2015,11,03,04,25,0.00
2015,11,03,04,26,0.00
2015,11,03,04,27,0.00
2015,11,03,04,28,0.00
2015,11,03,04,29,0.00
2015,11,03,04,30,0.00
2015,11,03,04,31,0.00
2015,11,03,04,32,0.00
2015,11,03,04,33,0.00
2015,11,03,04,34,0.00
2015,11,03,04,35,0.00
2015,11,03,04,36,0.00
2015,11,03,04,37,0.00
2015,11,03,04,38,0.00
2015,11,03,04,39,0.00
2015,11,03,04,40,0.00
2015,11,03,04,41,0.00
2015,11,03,04,42,0.00
2015,11,03,04,43,0.00
2015,11,03,04,44,0.00
2015,11,03,04,45,0.00
2015,11,03,04,46,0.00
2015,11,03,04,47,0.00
2015,11,03,04,48,0.00
2015,11,03,04,49,0.00
2015,11,03,04,50,0.00
2015,11,03,04,51,0.00
2015,11,03,04,52,0.00
2015,11,03,04,53,0.00
2015,11,03,04,54,0.00
2015,11,03,04,55,0.00
2015,11,03,04,56,0.00
2015,11,03,04,57,0.00
2015,11,03,04,58,0.00
2015,11,03,04,59,0.00
2015,11,03,05,00,0.00
2015,11,03,05,01,0.00
2015,11,03,05,02,0.00
2015,11,03,05,03,0.00
2015,11,03,05,04,0.00
2015,11,03,05,05,0.00
2015,11,03,05,06,0.00
2015,11,03,05,07,0.00
2015,11,03,05,08,0.00
2015,11,03,05,09,0.00
2015,11,03,05,10,0.00
2015,11,03,05,11,0.00
2015,11,03,05,12,0.00
2015,11,03,05,13,0.00
2015,11,03,05,14,0.00
2015,11,03,05,15,0.00
2015,11,03,05,16,0.00
2015,11,03,05,17,0.00
2015,11,03,05,18,0.00
2015,11,03,05,19,0.00
2015,11,03,05,20,0.00
2015,11,03,05,21,0.00
2015,11,03,05,22,0.00
2015,11,03,05,23,0.00
2015,11,03,05,24,0.00
2015,11,03,05,25,0.00
2015,11,03,05,26,0.00
2015,11,03,05,27,0.00
2015,11,03,05,28,0.00
2015,11,03,05,29,0.00
2015,11,03,05,30,0.00
2015,11,03,05,31,0.00
2015,11,03,05,32,0.00
2015,11,03,05,33,0.00
2015,11,03,05,34,0.00
2015,11,03,05,35,0.00
2015,11,03,05,36,0.00
2015,11,03,05,37,0.00
2015,11,03,05,38,0.00
2015,11,03,05,39,0.00
2015,11,03,05,40,0.00
2015,11,03,05,41,0.00
2015,11,03,05,42,0.00
2015,11,03,05,43,0.00
2015,11,03,05,44,0.00
2015,11,03,05,45,0.00
2015,11,03,05,46,0.00
2015,11,03,05,47,0.00
2015,11,03,05,48,0.00
2015,11,03,05,49,0.00
2015,11,03,05,50,0.00
2015,11,03,05,51,0.00
2015,11,03,05,52,0.00
2015,11,03,05,53,0.00
2015,11,03,05,54,0.00
2015,11,03,05,55,0.00
2015,11,03,05,56,0.00
2015,11,03,05,57,0.00
2015,11,03,05,58,0.00
2015,11,03,05,59,0.00
2015,11,03,06,00,0.00
2015,11,03,06,01,0.00
2015,11,03,06,02,0.00
2015,11,03,06,03,0.00
2015,11,03,06,04,0.00
2015,11,03,06,05,0.00
2015,11,03,06,06,0.00
2015,11,03,06,07,0.00
2015,11,03,06,08,0.00
2015,11,03,06,09,0.00
2015,11,03,06,10,0.00
2015,11,03,06,11,0.00
2015,11,03,06,12,0.00
2015,11,03,06,13,0.00
2015,11,03,06,14,0.00
2015,11,03,06,15,0.00
2015,11,03,06,16,0.00
2015,11,03,06,17,0.00
2015,11,03,06,18,0.00
2015,11,03,06,19,0.00
2015,11,03,06,20,0.00
2015,11,03,06,21,0.00
2015,11,03,06,22,0.00
2015,11,03,06,23,0.00
2015,11,03,06,24,0.00
2015,11,03,06,25,0.00
2015,11,03,06,26,0.00
2015,11,03,06,27,0.00
2015,11,03,06,28,0.00
2015,11,03,06,29,0.00
2015,11,03,06,30,0.00
2015,11,03,06,31,0.00
2015,11,03,06,32,0.00
2015,11,03,06,33,0.00
2015,11,03,06,34,0.00
2015,11,03,06,35,0.00
2015,11,03,06,36,0.00
2015,11,03,06,37,0.00
2015,11,03,06,38,0.00
2015,11,03,06,39,0.00
2015,11,03,06,40,0.00
2015,11,03,06,41,0.00
2015,11,03,06,42,0.00
2015,11,03,06,43,0.00
2015,11,03,06,44,0.00
2015,11,03,06,45,0.00
2015,11,03,06,46,0.00
2015,11,03,06,47,0.00
2015,11,03,06,48,0.00
2015,11,03,06,49,0.00
2015,11,03,06,50,0.00
2015,11,03,06,51,0.00
2015,11,03,06,52,0.00
2015,11,03,06,53,0.00
2015,11,03,06,54,0.00
2015,11,03,06,55,0.00
2015,11,03,06,56,0.00
2015,11,03,06,57,0.00
2015,11,03,06,58,0.00
2015,11,03,06,59,0.00
2015,11,03,07,00,0.00
2015,11,03,07,01,0.00
2015,11,03,07,02,0.00
2015,11,03,07,03,0.00
2015,11,03,07,04,0.00
2015,11,03,07,05,0.00
2015,11,03,07,06,0.00
2015,11,03,07,07,0.00
2015,11,03,07,08,0.00
2015,11,03,07,09,0.00
2015,11,03,07,10,0.00
2015,11,03,07,11,0.00
2015,11,03,07,12,0.00
2015,11,03,07,13,4.00
2015,11,03,07,14,5.00
2015,11,03,07,15,5.00
2015,11,03,07,16,5.00
2015,11,03,07,17,5.00
2015,11,03,07,18,5.00
2015,11,03,07,19,5.00
2015,11,03,07,20,5.00
2015,11,03,07,21,6.10
2015,11,03,07,22,7.00
2015,11,03,07,23,7.00
2015,11,03,07,24,7.00
2015,11,03,07,25,7.00
2015,11,03,07,26,7.00
2015,11,03,07,27,7.00
2015,11,03,07,28,7.00
2015,11,03,07,29,7.00
2015,11,03,07,30,7.00
2015,11,03,07,31,7.90
2015,11,03,07,32,9.00
2015,11,03,07,33,9.00
2015,11,03,07,34,9.00
2015,11,03,07,35,9.00
2015,11,03,07,36,9.00
2015,11,03,07,37,9.00
2015,11,03,07,38,9.00
2015,11,03,07,39,9.00
2015,11,03,07,40,9.00
2015,11,03,07,41,9.70
2015,11,03,07,42,11.00
2015,11,03,07,43,11.00
2015,11,03,07,44,11.00
2015,11,03,07,45,11.00
2015,11,03,07,46,11.00
2015,11,03,07,47,11.00
2015,11,03,07,48,11.00
2015,11,03,07,49,11.00
2015,11,03,07,50,11.00
2015,11,03,07,51,11.20
2015,11,03,07,52,12.70
2015,11,03,07,53,14.90
2015,11,03,07,54,16.00
2015,11,03,07,55,16.00
2015,11,03,07,56,16.00
2015,11,03,07,57,16.00
2015,11,03,07,58,16.00
2015,11,03,07,59,16.10
2015,11,03,08,00,18.00
2015,11,03,08,01,17.70
2015,11,03,08,02,16.00
2015,11,03,08,03,15.20
2015,11,03,08,04,14.00
2015,11,03,08,05,14.00
2015,11,03,08,06,15.20
2015,11,03,08,07,16.00
2015,11,03,08,08,16.00
2015,11,03,08,09,16.00
2015,11,03,08,10,17.90
2015,11,03,08,11,19.00
2015,11,03,08,12,18.80
2015,11,03,08,13,18.00
2015,11,03,08,14,18.00
2015,11,03,08,15,18.00
2015,11,03,08,16,18.50
2015,11,03,08,17,20.20
2015,11,03,08,18,23.80
2015,11,03,08,19,25.80
2015,11,03,08,20,27.70
2015,11,03,08,21,30.00
2015,11,03,08,22,32.00
2015,11,03,08,23,32.20
2015,11,03,08,24,33.00
2015,11,03,08,25,33.00
2015,11,03,08,26,34.70
2015,11,03,08,27,37.00
2015,11,03,08,28,41.20
2015,11,03,08,29,46.10
2015,11,03,08,30,46.20
2015,11,03,08,31,44.30
2015,11,03,08,32,42.10
2015,11,03,08,33,42.00
2015,11,03,08,34,42.00
2015,11,03,08,35,42.60
2015,11,03,08,36,46.80
2015,11,03,08,37,56.40
2015,11,03,08,38,68.80
2015,11,03,08,39,72.80
2015,11,03,08,40,64.20
2015,11,03,08,41,56.80
2015,11,03,08,42,62.00
2015,11,03,08,43,73.20
2015,11,03,08,44,69.30
2015,11,03,08,45,63.40
2015,11,03,08,46,65.00
2015,11,03,08,47,62.40
2015,11,03,08,48,56.40
2015,11,03,08,49,53.50
2015,11,03,08,50,48.80
2015,11,03,08,51,40.00
2015,11,03,08,52,33.20
2015,11,03,08,53,32.00
2015,11,03,08,54,33.00
2015,11,03,08,55,32.10
2015,11,03,08,56,33.00
2015,11,03,08,57,32.10
2015,11,03,08,58,29.30
2015,11,03,08,59,28.00
2015,11,03,09,00,26.90
2015,11,03,09,01,26.00
2015,11,03,09,02,27.40
2015,11,03,09,03,26.50
2015,11,03,09,04,27.80
2015,11,03,09,05,31.60
2015,11,03,09,06,34.80
2015,11,03,09,07,32.40
2015,11,03,09,08,30.00
2015,11,03,09,09,30.60
2015,11,03,09,10,31.20
2015,11,03,09,11,29.00
2015,11,03,09,12,29.20
2015,11,03,09,13,31.40
2015,11,03,09,14,34.40
2015,11,03,09,15,44.30
2015,11,03,09,16,48.80
2015,11,03,09,17,46.70
2015,11,03,09,18,44.40
2015,11,03,09,19,46.80
2015,11,03,09,20,48.30
2015,11,03,09,21,47.80
2015,11,03,09,22,51.20
2015,11,03,09,23,57.10
2015,11,03,09,24,64.60
2015,11,03,09,25,65.50
2015,11,03,09,26,63.40
2015,11,03,09,27,58.50
2015,11,03,09,28,52.60
2015,11,03,09,29,49.00
2015,11,03,09,30,49.50
2015,11,03,09,31,51.00
2015,11,03,09,32,53.20
2015,11,03,09,33,59.70
2015,11,03,09,34,67.90
2015,11,03,09,35,77.80
2015,11,03,09,36,88.50
2015,11,03,09,37,98.70
2015,11,03,09,38,107.00
2015,11,03,09,39,114.40
2015,11,03,09,40,120.80
2015,11,03,09,41,119.50
2015,11,03,09,42,118.70
2015,11,03,09,43,122.10
2015,11,03,09,44,128.50
2015,11,03,09,45,129.60
2015,11,03,09,46,117.70
2015,11,03,09,47,98.00
2015,11,03,09,48,79.40
2015,11,03,09,49,74.30
2015,11,03,09,50,77.40
2015,11,03,09,51,81.60
2015,11,03,09,52,84.60
2015,11,03,09,53,86.70
2015,11,03,09,54,83.20
2015,11,03,09,55,72.50
2015,11,03,09,56,70.70
2015,11,03,09,57,77.80
2015,11,03,09,58,87.80
2015,11,03,09,59,94.20
2015,11,03,10,00,97.80
2015,11,03,10,01,100.00
2015,11,03,10,02,99.60
2015,11,03,10,03,96.80
2015,11,03,10,04,92.10
2015,11,03,10,05,88.40
2015,11,03,10,06,87.00
2015,11,03,10,07,88.00
2015,11,03,10,08,89.90
2015,11,03,10,09,95.50
2015,11,03,10,10,99.60
2015,11,03,10,11,100.00
2015,11,03,10,12,93.90
2015,11,03,10,13,82.60
2015,11,03,10,14,76.80
2015,11,03,10,15,75.30
2015,11,03,10,16,76.80
2015,11,03,10,17,84.50
2015,11,03,10,18,89.20
2015,11,03,10,19,87.20
2015,11,03,10,20,82.00
2015,11,03,10,21,77.60
2015,11,03,10,22,78.90
2015,11,03,10,23,88.30
2015,11,03,10,24,91.60
2015,11,03,10,25,95.60
2015,11,03,10,26,97.00
2015,11,03,10,27,97.40
2015,11,03,10,28,99.10
2015,11,03,10,29,98.80
2015,11,03,10,30,97.30
2015,11,03,10,31,97.00
2015,11,03,10,32,99.60
2015,11,03,10,33,95.20
2015,11,03,10,34,82.50
2015,11,03,10,35,67.20
2015,11,03,10,36,59.40
2015,11,03,10,37,59.50
2015,11,03,10,38,65.20
2015,11,03,10,39,70.60
2015,11,03,10,40,75.00
2015,11,03,10,41,85.40
2015,11,03,10,42,96.00
2015,11,03,10,43,103.10
2015,11,03,10,44,106.70
2015,11,03,10,45,114.30
2015,11,03,10,46,121.30
2015,11,03,10,47,128.80
2015,11,03,10,48,134.40
2015,11,03,10,49,135.80
2015,11,03,10,50,137.00
2015,11,03,10,51,132.80
2015,11,03,10,52,119.60
2015,11,03,10,53,114.00
2015,11,03,10,54,121.70
2015,11,03,10,55,126.80
2015,11,03,10,56,123.00
2015,11,03,10,57,123.60
2015,11,03,10,58,130.00
2015,11,03,10,59,144.60
2015,11,03,11,00,163.40
2015,11,03,11,01,177.60
2015,11,03,11,02,171.80
2015,11,03,11,03,154.00
2015,11,03,11,04,136.00
2015,11,03,11,05,130.30
2015,11,03,11,06,134.50
2015,11,03,11,07,134.00
2015,11,03,11,08,133.60
2015,11,03,11,09,132.50
2015,11,03,11,10,135.80
2015,11,03,11,11,139.80
2015,11,03,11,12,135.50
2015,11,03,11,13,121.20
2015,11,03,11,14,111.40
2015,11,03,11,15,110.50
2015,11,03,11,16,118.70
2015,11,03,11,17,120.00
2015,11,03,11,18,110.80
2015,11,03,11,19,107.10
2015,11,03,11,20,95.50
2015,11,03,11,21,89.90
2015,11,03,11,22,89.30
2015,11,03,11,23,96.50
2015,11,03,11,24,103.80
2015,11,03,11,25,110.50
2015,11,03,11,26,120.50
2015,11,03,11,27,127.20
2015,11,03,11,28,131.80
2015,11,03,11,29,131.10
2015,11,03,11,30,121.00
2015,11,03,11,31,115.00
2015,11,03,11,32,128.40
2015,11,03,11,33,149.20
2015,11,03,11,34,152.30
2015,11,03,11,35,134.40
2015,11,03,11,36,112.00
2015,11,03,11,37,111.80
2015,11,03,11,38,141.20
2015,11,03,11,39,146.00
2015,11,03,11,40,119.40
2015,11,03,11,41,115.70
2015,11,03,11,42,125.00
2015,11,03,11,43,120.10
2015,11,03,11,44,111.00
2015,11,03,11,45,113.40
2015,11,03,11,46,131.60
2015,11,03,11,47,151.10
2015,11,03,11,48,155.20
2015,11,03,11,49,146.20
2015,11,03,11,50,135.00
2015,11,03,11,51,122.80
2015,11,03,11,52,121.00
2015,11,03,11,53,122.50
2015,11,03,11,54,131.70
2015,11,03,11,55,146.60
2015,11,03,11,56,166.00
2015,11,03,11,57,192.20
2015,11,03,11,58,207.30
2015,11,03,11,59,205.20
2015,11,03,12,00,196.40
2015,11,03,12,01,179.80
2015,11,03,12,02,161.10
2015,11,03,12,03,152.20
2015,11,03,12,04,149.50
2015,11,03,12,05,152.40
2015,11,03,12,06,155.00
2015,11,03,12,07,157.50
2015,11,03,12,08,166.60
2015,11,03,12,09,180.60
2015,11,03,12,10,195.70
2015,11,03,12,11,211.10
2015,11,03,12,12,201.30
2015,11,03,12,13,180.30
2015,11,03,12,14,173.60
2015,11,03,12,15,172.00
2015,11,03,12,16,171.10
2015,11,03,12,17,169.00
2015,11,03,12,18,162.50
2015,11,03,12,19,153.00
2015,11,03,12,20,151.00
2015,11,03,12,21,154.80
2015,11,03,12,22,155.10
2015,11,03,12,23,151.20
2015,11,03,12,24,153.70
2015,11,03,12,25,160.60
2015,11,03,12,26,163.00
2015,11,03,12,27,163.00
2015,11,03,12,28,164.80
2015,11,03,12,29,169.00
2015,11,03,12,30,166.20
2015,11,03,12,31,156.20
2015,11,03,12,32,142.50
2015,11,03,12,33,135.60
2015,11,03,12,34,143.10
2015,11,03,12,35,143.70
2015,11,03,12,36,141.00
2015,11,03,12,37,139.30
2015,11,03,12,38,134.00
2015,11,03,12,39,126.80
2015,11,03,12,40,126.00
2015,11,03,12,41,108.50
2015,11,03,12,42,94.60
2015,11,03,12,43,114.20
2015,11,03,12,44,143.80
2015,11,03,12,45,192.60
2015,11,03,12,46,166.90
2015,11,03,12,47,165.30
2015,11,03,12,48,167.00
2015,11,03,12,49,222.30
2015,11,03,12,50,311.00
2015,11,03,12,51,301.50
2015,11,03,12,52,359.20
2015,11,03,12,53,402.60
2015,11,03,12,54,419.00
2015,11,03,12,55,422.00
2015,11,03,12,56,422.00
2015,11,03,12,57,387.50
2015,11,03,12,58,429.10
2015,11,03,12,59,414.80
2015,11,03,13,00,420.00
2015,11,03,13,01,420.00
2015,11,03,13,02,448.40
2015,11,03,13,03,483.00
2015,11,03,13,04,483.00
2015,11,03,13,05,465.30
2015,11,03,13,06,450.20
2015,11,03,13,07,439.00
2015,11,03,13,08,431.90
2015,11,03,13,09,415.40
2015,11,03,13,10,426.50
2015,11,03,13,11,415.20
2015,11,03,13,12,393.40
2015,11,03,13,13,388.50
2015,11,03,13,14,408.80
2015,11,03,13,15,406.80
2015,11,03,13,16,403.80
2015,11,03,13,17,409.00
2015,11,03,13,18,421.40
2015,11,03,13,19,420.10
2015,11,03,13,20,420.00
2015,11,03,13,21,414.80
2015,11,03,13,22,395.20
2015,11,03,13,23,391.00
2015,11,03,13,24,396.50
2015,11,03,13,25,396.00
2015,11,03,13,26,396.00
2015,11,03,13,27,396.00
2015,11,03,13,28,401.70
2015,11,03,13,29,403.00
2015,11,03,13,30,396.50
2015,11,03,13,31,391.70
2015,11,03,13,32,389.00
2015,11,03,13,33,384.40
2015,11,03,13,34,383.00
2015,11,03,13,35,383.00
2015,11,03,13,36,363.80
2015,11,03,13,37,373.40
2015,11,03,13,38,390.70
2015,11,03,13,39,364.00
2015,11,03,13,40,380.40
2015,11,03,13,41,376.60
2015,11,03,13,42,364.00
2015,11,03,13,43,364.00
2015,11,03,13,44,365.80
2015,11,03,13,45,369.00
2015,11,03,13,46,367.60
2015,11,03,13,47,364.90
2015,11,03,13,48,364.00
2015,11,03,13,49,362.50
2015,11,03,13,50,360.30
2015,11,03,13,51,360.00
2015,11,03,13,52,359.70
2015,11,03,13,53,355.00
2015,11,03,13,54,355.00
2015,11,03,13,55,353.20
2015,11,03,13,56,350.00
2015,11,03,13,57,350.00
2015,11,03,13,58,348.80
2015,11,03,13,59,348.00
2015,11,03,14,00,346.50
2015,11,03,14,01,343.60
2015,11,03,14,02,341.20
2015,11,03,14,03,339.00
2015,11,03,14,04,338.90
2015,11,03,14,05,337.60
2015,11,03,14,06,336.60
2015,11,03,14,07,336.60
2015,11,03,14,08,334.00
2015,11,03,14,09,331.60
2015,11,03,14,10,330.00
2015,11,03,14,11,329.20
2015,11,03,14,12,325.60
2015,11,03,14,13,325.00
2015,11,03,14,14,322.80
2015,11,03,14,15,320.00
2015,11,03,14,16,319.60
2015,11,03,14,17,317.10
2015,11,03,14,18,315.00
2015,11,03,14,19,314.00
2015,11,03,14,20,310.70
2015,11,03,14,21,309.00
2015,11,03,14,22,306.80
2015,11,03,14,23,306.00
2015,11,03,14,24,304.20
2015,11,03,14,25,300.90
2015,11,03,14,26,299.00
2015,11,03,14,27,298.00
2015,11,03,14,28,294.70
2015,11,03,14,29,293.20
2015,11,03,14,30,291.00
2015,11,03,14,31,290.00
2015,11,03,14,32,288.00
2015,11,03,14,33,285.60
2015,11,03,14,34,281.60
2015,11,03,14,35,281.00
2015,11,03,14,36,278.10
2015,11,03,14,37,277.70
2015,11,03,14,38,275.00
2015,11,03,14,39,271.70
2015,11,03,14,40,270.20
2015,11,03,14,41,267.20
2015,11,03,14,42,265.00
2015,11,03,14,43,263.00
2015,11,03,14,44,260.50
2015,11,03,14,45,258.40
2015,11,03,14,46,255.30
2015,11,03,14,47,252.80
2015,11,03,14,48,250.50
2015,11,03,14,49,247.50
2015,11,03,14,50,245.30
2015,11,03,14,51,243.60
2015,11,03,14,52,241.20
2015,11,03,14,53,237.90
2015,11,03,14,54,236.40
2015,11,03,14,55,233.00
2015,11,03,14,56,229.40
2015,11,03,14,57,227.20
2015,11,03,14,58,224.90
2015,11,03,14,59,220.60
2015,11,03,15,00,217.50
2015,11,03,15,01,214.90
2015,11,03,15,02,212.20
2015,11,03,15,03,210.00
2015,11,03,15,04,207.30
2015,11,03,15,05,204.70
2015,11,03,15,06,202.60
2015,11,03,15,07,199.60
2015,11,03,15,08,195.40
2015,11,03,15,09,191.90
2015,11,03,15,10,189.70
2015,11,03,15,11,187.40
2015,11,03,15,12,183.70
2015,11,03,15,13,181.00
2015,11,03,15,14,179.50
2015,11,03,15,15,176.80
2015,11,03,15,16,173.40
2015,11,03,15,17,171.20
2015,11,03,15,18,167.60
2015,11,03,15,19,163.40
2015,11,03,15,20,161.90
2015,11,03,15,21,159.40
2015,11,03,15,22,155.20
2015,11,03,15,23,152.40
2015,11,03,15,24,150.20
2015,11,03,15,25,148.50
2015,11,03,15,26,145.70
2015,11,03,15,27,142.80
2015,11,03,15,28,139.80
2015,11,03,15,29,137.30
2015,11,03,15,30,134.30
2015,11,03,15,31,132.00
2015,11,03,15,32,129.70
2015,11,03,15,33,126.60
2015,11,03,15,34,124.40
2015,11,03,15,35,121.80
2015,11,03,15,36,119.00
2015,11,03,15,37,115.70
2015,11,03,15,38,113.40
2015,11,03,15,39,110.00
2015,11,03,15,40,107.40
2015,11,03,15,41,105.20
2015,11,03,15,42,102.10
2015,11,03,15,43,99.70
2015,11,03,15,44,97.40
2015,11,03,15,45,94.40
2015,11,03,15,46,91.80
2015,11,03,15,47,86.70
2015,11,03,15,48,78.10
2015,11,03,15,49,66.80
2015,11,03,15,50,54.40
2015,11,03,15,51,39.20
2015,11,03,15,52,30.70
2015,11,03,15,53,29.90
2015,11,03,15,54,27.70
2015,11,03,15,55,25.80
2015,11,03,15,56,24.40
2015,11,03,15,57,23.00
2015,11,03,15,58,22.00
2015,11,03,15,59,21.00
2015,11,03,16,00,19.70
2015,11,03,16,01,19.00
2015,11,03,16,02,18.20
2015,11,03,16,03,18.00
2015,11,03,16,04,17.90
2015,11,03,16,05,16.00
2015,11,03,16,06,16.00
2015,11,03,16,07,16.00
2015,11,03,16,08,15.10
2015,11,03,16,09,14.00
2015,11,03,16,10,14.00
2015,11,03,16,11,14.00
2015,11,03,16,12,14.00
2015,11,03,16,13,14.00
2015,11,03,16,14,14.00
2015,11,03,16,15,12.00
2015,11,03,16,16,12.00
2015,11,03,16,17,12.00
2015,11,03,16,18,12.00
2015,11,03,16,19,12.00
2015,11,03,16,20,11.50
2015,11,03,16,21,11.00
2015,11,03,16,22,11.00
2015,11,03,16,23,11.00
2015,11,03,16,24,11.00
2015,11,03,16,25,9.20
2015,11,03,16,26,9.00
2015,11,03,16,27,9.00
2015,11,03,16,28,9.00
2015,11,03,16,29,9.00
2015,11,03,16,30,8.20
2015,11,03,16,31,7.00
2015,11,03,16,32,7.00
2015,11,03,16,33,7.00
2015,11,03,16,34,7.00
2015,11,03,16,35,7.00
2015,11,03,16,36,5.20
2015,11,03,16,37,5.00
2015,11,03,16,38,5.00
2015,11,03,16,39,5.00
2015,11,03,16,40,5.00
2015,11,03,16,41,5.00
2015,11,03,16,42,2.60
2015,11,03,16,43,0.00
2015,11,03,16,44,0.00
2015,11,03,16,45,0.00
2015,11,03,16,46,0.00
2015,11,03,16,47,0.00
2015,11,03,16,48,0.00
2015,11,03,16,49,0.00
2015,11,03,16,50,0.00
2015,11,03,16,51,0.00
2015,11,03,16,52,0.00
2015,11,03,16,53,0.00
2015,11,03,16,54,0.00
2015,11,03,16,55,0.00
2015,11,03,16,56,0.00
2015,11,03,16,57,0.00
2015,11,03,16,58,0.00
2015,11,03,16,59,0.00
2015,11,03,17,00,0.00
2015,11,03,17,01,0.00
2015,11,03,17,02,0.00
2015,11,03,17,03,0.00
2015,11,03,17,04,0.00
2015,11,03,17,05,0.00
2015,11,03,17,06,0.00
2015,11,03,17,07,0.00
2015,11,03,17,08,0.00
2015,11,03,17,09,0.00
2015,11,03,17,10,0.00
2015,11,03,17,11,0.00
2015,11,03,17,12,0.00
2015,11,03,17,13,0.00
2015,11,03,17,14,0.00
2015,11,03,17,15,0.00
2015,11,03,17,16,0.00
2015,11,03,17,17,0.00
2015,11,03,17,18,0.00
2015,11,03,17,19,0.00
2015,11,03,17,20,0.00
2015,11,03,17,21,0.00
2015,11,03,17,22,0.00
2015,11,03,17,23,0.00
2015,11,03,17,24,0.00
2015,11,03,17,25,0.00
2015,11,03,17,26,0.00
2015,11,03,17,27,0.00
2015,11,03,17,28,0.00
2015,11,03,17,29,0.00
2015,11,03,17,30,0.00
2015,11,03,17,31,0.00